Powrót do katalogu

FREGAT DEB

LostUNKNOWN
NORAD 46620·DEBRIS·🇷🇺 Russia

Wystrzelony Jul 18, 2011 z Baikonur Cosmodrome

Loading…

Następne Przeloty (najbliższe 24 godziny)

TLE

NieaktualneSource: Space-Track

Epoka: Jan 25, 2021, 00:48 UTC

1 46620U 11037ML  21025.03364512  .02429433  00000-0  40604+0 0  9994
2 46620  50.9065 313.7891 2316617 356.8086   1.9873 10.49069001 12291

Śledź FREGAT DEB w czasie rzeczywistym z AllMySat

Download on the App Store